Regional Weather Roundup
Issued by NWS

Home | Current Version | Previous Version | Text Only | Print | Product List | Glossary On
Versions: 1 2 3 4 5 6 7 8 9 10 11 12 13 14 15 16 17 18 19 20 21 22 23 24 25 26 27 28 29 30 31 32 33 34 35 36 37 38 39 40 41 42 43 44 45 46 47 48 49 50
000
ASUS44 KOUN 281410
RWROK

WEATHER ROUNDUP FOR OKLAHOMA
NATIONAL WEATHER SERVICE NORMAN OK
800 AM CST FRI NOV 28 2014

NOTE: "FAIR" INDICATES FEW OR NO CLOUDS BELOW 12,000 FEET WITH NO
      SIGNIFICANT WEATHER AND/OR OBSTRUCTIONS TO VISIBILITY.

OKZ001>007-009>012-014-015-017-281500-
NORTHWEST OKLAHOMA AND THE PANHANDLE

CITY           SKY/WX    TMP DP  RH WIND       PRES   REMARKS
GAGE           CLEAR     38  29  70 SW12      29.99F WCI  30
ENID/WOODRING  PTCLDY    37  32  81 S12       30.04F WCI  30
$$

OKZ016-021>023-033>039-044-045-281500-
SOUTHWEST OKLAHOMA

CITY           SKY/WX    TMP DP  RH WIND       PRES   REMARKS
LAWTON/REGL    CLEAR     36  31  82 S7        30.12F WCI  30
LAWTON/FT SILL CLEAR     36  32  84 S7        30.10F WCI  31
FREDERICK      CLEAR     37  32  82 S9        30.09F WCI  30
CLINTON        CLEAR     39  32  76 S12       30.05F WCI  32
HOBART         CLEAR     39  33  79 S17       30.06F WCI  30
ALTUS AFB      CLEAR     36  36  99 SE5       30.09F WCI  32
$$

OKZ018>020-024>031-281500-
CENTRAL OKLAHOMA

CITY           SKY/WX    TMP DP  RH WIND       PRES   REMARKS
OKLAHOMA CITY  PTCLDY    40  30  67 S9        30.10F WCI  34
OKC/WILEY POST CLEAR     45  31  58 S15       30.09F
OKC/TINKER AFB CLEAR     42  30  62 S16       30.10F
STILLWATER     CLEAR     44  29  55 S10       30.08F
GUTHRIE        CLEAR     45  30  55 S10       30.08F
$$

OKZ008-013-054>072-281500-
NORTHEAST OKLAHOMA

CITY           SKY/WX    TMP DP  RH WIND       PRES   REMARKS
TULSA          PTCLDY    42  28  57 S18       30.12F
TULSA/JONES    CLEAR     40  28  62 S5        30.14F
PONCA CITY     CLEAR     44  28  53 S8        30.06F
BARTLESVILLE   CLEAR     38  28  67 S7        30.10F WCI  33
MUSKOGEE       CLEAR     37  30  75 S10       30.20F WCI  30
$$

OKZ032-040>043-046>053-073>077-281500-
SOUTH CENTRAL/SOUTHEAST OKLAHOMA

CITY           SKY/WX    TMP DP  RH WIND       PRES   REMARKS
ARDMORE/DWNTWN CLEAR     37  32  81 CALM      30.20F
MCALESTER      MOCLDY    45  29  53 VRB7      30.21F
$$



USA.gov is the U.S. government's official web portal to all federal, state and local government web resources and services.